Regional Weather Roundup
Issued by NWS

Home | Current Version | Previous Version | Graphics & Text | Print | Product List | Glossary On
Versions: 1 2 3 4 5 6 7 8 9 10 11 12 13 14 15 16 17 18 19 20 21 22 23 24 25 26 27 28 29 30 31 32 33 34 35 36 37 38 39 40 41 42 43 44 45 46 47 48 49 50
000
ASUS43 KBIS 260120
RWRND

NORTH DAKOTA REGIONAL WEATHER ROUNDUP
NATIONAL WEATHER SERVICE BISMARCK ND
700 PM CST TUE NOV 25 2014

NOTE: "FAIR" INDICATES FEW OR NO CLOUDS BELOW 12,000 FEET WITH NO
SIGNIFICANT WEATHER AND/OR OBSTRUCTIONS TO VISIBILITY.


NDZ001>003-009>011-017-260200-
NORTHWEST NORTH DAKOTA

CITY           SKY/WX    TMP DP  RH WIND       PRES   REMARKS
WILLISTON      CLOUDY    21  15  78 N17       30.02R WCI   7
MINOT          LGT SNOW  18  14  84 N17       29.96R FOG     WCI   3
MINOT AFB      MIX PCPN  16  14  93 N16       29.98R WCI   0
$$

NDZ018>021-031>035-040>046-260200-
SOUTHWEST NORTH DAKOTA

CITY           SKY/WX    TMP DP  RH WIND       PRES   REMARKS
BISMARCK       FLURRIES  33  32  96 NW10      29.74R
DICKINSON      CLOUDY    31  27  85 NW21G31   29.81R WCI  18
GARRISON         N/A     21  18  88 NE18G26   29.86R WCI   6
HETTINGER ARPT FLURRIES  33  27  78 NW26G37   29.81R WCI  20
$$

NDZ004>008-012>016-024-026-027-054-260200-
NORTHEAST NORTH DAKOTA

CITY           SKY/WX    TMP DP  RH WIND       PRES   REMARKS
GRAND FORKS    LGT SNOW  19  14  79 N13       30.01R WCI   7
GRND FRKS AFB  LGT SNOW  18  16  93 NE13      30.01R FOG     WCI   4
DEVILS LAKE    CLOUDY    16   5  62 NE20      29.96R WCI  -1
$$

NDZ022-023-025-028>030-036>039-047>053-260200-
SOUTHEAST NORTH DAKOTA

CITY           SKY/WX    TMP DP  RH WIND       PRES   REMARKS
FARGO          CLOUDY    25  16  68 E5        29.93R WCI  19
JAMESTOWN      SNOW      26  23  88 E16       29.83R VSB 1/2 WCI  14
$$



USA.gov is the U.S. government's official web portal to all federal, state and local government web resources and services.